Find Starlink 30374

NORAD ID: 57809 Int'l Des: 2023-138 Owner: SPXS Country: US Constellation: starlink operational
LEOCIRCULAR

当前视图

正在加载3D地球...

About Starlink 30374

Starlink 30374 (NORAD 57809) is a starlink constellation satellite (v2 mini) launched Sep 9, 2023 by SPXS of US. It operates in LEO, CIRCULAR orbit with a mass of 730.00 kg.

关于 Starlink 30374

正在加载描述...

即将过境

Passes for default location (London). Set your location on the main map for personalized predictions.

高度历史

Loading altitude history...

两行轨道根数

1 57809U 23138B 26171.29471318 .00000744 00000-0 36561-4 0 9998
2 57809 43.0017 14.4566 0001317 284.4268 75.6437 15.27577223154438
Epoch: Jun 20, 2026 • Age: 11 hours

当前状态

高度 486.9 km
速度 7.63 km/s
星下点 42.07°N, 68.99°W
发射日期 Sep 9, 2023
运行时间 2.7 years
类型 internet

技术详情

分类 Payload
质量 730.00 kg
干质量 700.00 kg
总质量 730.00 kg
长度 0.30 m
直径 4.10 m
跨度 29.00 m
形状 Box + pan
制造商 SPXS
平台类型 Starlink V2M
阶段状态 In Orbit
所有者/国家 SPXS/US

Most Searched